DW8791 Weather Reports


time (UTC)temp
F
wind
direction
speed
knots
gust
knots
rain 1hr
in
rain 24hr
in
rain mn
in
humidity
%
barometer
mb
20260502161106 68 291 0.9 4.3 0.00 0.00 0.00 50 1012.2
20260502160606 68 228 0.9 6.1 0.00 0.00 0.00 50 1012.2
20260502160105 68 210 2.6 6.1 0.00 0.00 0.00 50 1012.2
20260502151605 68 236 0.9 5.2 0.00 0.00 0.00 49 1012.6
20260502151105 69 354 1.7 5.2 0.00 0.00 0.00 49 1012.6
20260502150605 69 244 2.6 6.1 0.00 0.00 0.00 49 1012.7
20260502150106 69 296 4.3 6.1 0.00 0.00 0.00 49 1012.7
20260502140108 69 229 1.7 5.2 0.00 0.00 0.00 51 1013.2
20260502130607 69 272 1.7 7.8 0.00 0.00 0.00 52 1013.7
20260502130107 68 220 2.6 7.8 0.00 0.00 0.00 52 1013.8
20260502123607 68 215 5.2 8.7 0.00 0.00 0.00 54 1014.2
20260502123107 68 281 4.3 10.4 0.00 0.00 0.00 53 1014.2
20260502121608 68 224 1.7 14.8 0.00 0.00 0.00 54 1014.6
20260502121107 68 212 5.2 14.8 0.00 0.00 0.00 54 1014.6
20260502120607 67 217 3.5 14.8 0.00 0.00 0.00 55 1014.7
20260502120107 67 220 1.7 10.4 0.00 0.00 0.00 56 1014.7
20260502114607 66 229 2.6 10.4 0.00 0.00 0.00 57 1014.5
20260502114107 66 223 3.5 8.7 0.00 0.00 0.00 58 1014.5
20260502113107 66 277 1.7 7.0 0.00 0.00 0.00 59 1014.6
20260502111608 65 261 1.7 12.2 0.00 0.00 0.00 60 1014.6
20260502111107 65 253 1.7 12.2 0.00 0.00 0.00 60 1014.6
20260502110607 65 282 3.5 10.4 0.00 0.00 0.00 60 1014.7
20260502110107 64 251 2.6 10.4 0.00 0.00 0.00 61 1014.7
20260502104608 64 261 4.3 10.4 0.00 0.00 0.00 62 1014.9
20260502103607 64 280 4.3 10.4 0.00 0.00 0.00 63 1015.0
20260502101609 62 276 2.6 8.7 0.00 0.00 0.00 64 1015.0
20260502100607 62 224 4.3 10.4 0.00 0.00 0.00 64 1015.1
20260502100108 63 283 5.2 10.4 0.00 0.00 0.00 64 1015.2
20260502090607 61 269 4.3 11.3 0.00 0.00 0.00 66 1015.5
20260502090107 61 267 4.3 10.4 0.00 0.00 0.00 66 1015.4
20260502080108 59 279 2.6 8.7 0.00 0.00 0.00 68 1015.3
20260502071107 57 278 2.6 7.8 0.00 0.00 0.00 73 1015.3
20260502070607 57 262 2.6 7.8 0.00 0.00 0.00 73 1015.4
20260502070108 57 286 4.3 7.8 0.00 0.00 0.00 73 1015.3
20260502064608 57 279 3.5 7.8 0.00 0.00 0.00 73 1015.3
20260502064108 57 279 2.6 7.8 0.00 0.00 0.00 73 1015.3
20260502061607 56 275 1.7 8.7 0.00 0.00 0.00 76 1015.4
20260502061108 56 286 1.7 8.7 0.00 0.00 0.00 76 1015.5
20260502060607 56 271 2.6 8.7 0.00 0.00 0.00 76 1015.4
20260502060108 56 248 1.7 6.1 0.00 0.00 0.00 76 1015.4
20260502053607 54 285 2.6 7.8 0.00 0.00 0.00 79 1015.4
20260502053107 54 282 4.3 7.8 0.00 0.00 0.00 80 1015.4
20260502051607 53 286 1.7 10.4 0.00 0.00 0.00 81 1015.3
20260502051108 53 283 4.3 10.4 0.00 0.00 0.00 80 1015.3
20260502050608 53 276 2.6 10.4 0.00 0.00 0.00 81 1015.2
20260502050107 53 274 2.6 10.4 0.00 0.00 0.00 80 1015.2
20260502044608 54 283 3.5 7.0 0.00 0.00 0.00 80 1015.2
20260502044108 54 269 1.7 10.4 0.00 0.00 0.00 79 1015.2
20260502043607 54 280 4.3 10.4 0.00 0.00 0.00 79 1015.1
20260502043107 55 279 5.2 10.4 0.00 0.00 0.00 78 1015.2
20260502041607 55 281 1.7 6.1 0.00 0.00 0.00 78 1015.3
20260502041107 55 270 3.5 6.1 0.00 0.00 0.00 78 1015.3
20260502040607 55 302 1.7 5.2 0.00 0.00 0.00 79 1015.3
20260502040107 55 287 1.7 5.2 0.00 0.00 0.00 79 1015.3
20260502034607 55 288 2.6 7.0 0.00 0.00 0.00 79 1015.3
20260502034107 55 282 2.6 7.0 0.00 0.00 0.00 79 1015.4
20260502033607 55 278 2.6 6.1 0.00 0.00 0.00 79 1015.4
20260502033108 55 272 1.7 6.1 0.00 0.00 0.00 79 1015.4
20260502031608 56 275 3.5 7.0 0.00 0.00 0.00 78 1015.4
20260502031108 56 271 3.5 8.7 0.00 0.00 0.00 79 1015.4
20260502030608 56 276 4.3 8.7 0.00 0.00 0.00 79 1015.4
20260502024607 56 294 2.6 7.0 0.00 0.00 0.00 79 1015.5
20260502024107 56 264 2.6 6.1 0.00 0.00 0.00 80 1015.5
20260502023608 56 274 1.7 6.1 0.00 0.00 0.00 80 1015.5
20260502023107 56 285 2.6 6.1 0.00 0.00 0.00 80 1015.5
20260502021607 57 288 2.6 7.0 0.00 0.00 0.00 80 1015.6
20260502020608 57 267 3.5 8.7 0.00 0.00 0.00 80 1015.6
20260502020107 57 282 2.6 6.1 0.00 0.00 0.00 80 1015.6
20260502014608 57 303 0.9 2.6 0.00 0.00 0.00 79 1015.8
20260502013607 57 289 1.7 2.6 0.00 0.00 0.00 78 1015.8
20260502013107 57 286 1.7 2.6 0.00 0.00 0.00 78 1015.9
20260502011607 57 282 1.7 7.0 0.00 0.00 0.00 79 1015.9
20260502010607 57 278 2.6 7.0 0.00 0.00 0.00 79 1015.9
20260502010108 58 273 2.6 7.0 0.00 0.00 0.00 79 1015.9
20260502001607 58 260 1.7 5.2 0.00 0.00 0.00 77 1016.0
20260502001107 59 229 0.9 4.3 0.00 0.00 0.00 77 1016.1
20260502000108 59 213 1.7 6.1 0.00 0.00 0.00 76 1016.0
20260501234108 59 272 0.9 6.1 0.00 0.00 0.00 76 1016.0
20260501233608 59 222 1.7 6.1 0.00 0.00 0.00 76 1016.0
20260501233108 59 222 1.7 6.1 0.00 0.00 0.00 75 1016.1
20260501231107 60 285 1.7 2.6 0.00 0.00 0.00 74 1016.1
20260501230606 60 293 0.9 5.2 0.00 0.00 0.00 74 1016.1
20260501230107 60 251 1.7 5.2 0.00 0.00 0.00 74 1016.1
20260501224108 60 272 2.6 7.8 0.00 0.00 0.00 72 1016.0
20260501223607 60 283 1.7 4.3 0.00 0.00 0.00 72 1016.1
20260501221608 61 277 3.5 7.8 0.00 0.00 0.00 70 1016.2
20260501220607 61 290 3.5 7.0 0.00 0.00 0.00 69 1016.2
20260501214607 61 278 4.3 7.8 0.00 0.00 0.00 68 1016.1
20260501214108 61 275 3.5 7.8 0.00 0.00 0.00 67 1016.1
20260501213607 61 288 2.6 7.0 0.00 0.00 0.00 67 1016.0
20260501211608 60 283 1.7 7.0 0.00 0.00 0.00 72 1015.9
20260501211108 60 282 1.7 7.0 0.00 0.00 0.00 73 1015.9
20260501210607 59 286 2.6 7.0 0.00 0.00 0.00 74 1015.8
20260501210107 59 269 0.9 2.6 0.00 0.00 0.00 74 1015.9
20260501204607 59 307 0.9 2.6 0.00 0.00 0.00 75 1015.9
20260501203608 58 288 2.6 6.1 0.00 0.00 0.00 77 1016.1
20260501203107 58 276 0.0 2.6 0.00 0.00 0.00 77 1015.7
20260501201607 58 100 1.7 2.6 0.00 0.00 0.00 77 1015.7
20260501200108 59 112 1.7 2.6 0.00 0.00 0.00 75 1015.7
20260501194607 59 126 1.7 4.3 0.00 0.00 0.00 74 1015.7
20260501194107 59 139 1.7 5.2 0.00 0.00 0.00 73 1015.8
20260501193607 59 106 1.7 5.2 0.00 0.00 0.00 73 1015.7
20260501193107 59 117 0.9 5.2 0.00 0.00 0.00 72 1015.7
20260501191607 60 124 1.7 7.0 0.00 0.00 0.00 70 1015.7
20260501190607 60 109 3.5 6.1 0.00 0.00 0.00 70 1015.7
20260501190107 60 110 2.6 6.1 0.00 0.00 0.00 69 1015.7
20260501184607 61 128 1.7 7.0 0.00 0.00 0.00 69 1015.8
20260501184107 61 129 2.6 7.0 0.00 0.00 0.00 69 1015.8
20260501183608 61 118 2.6 8.7 0.00 0.00 0.00 68 1015.7
20260501183108 61 112 4.3 8.7 0.00 0.00 0.00 68 1015.8
20260501181607 61 103 3.5 11.3 0.00 0.00 0.00 68 1015.8
20260501181107 61 124 5.2 11.3 0.00 0.00 0.00 67 1015.8
20260501180606 61 130 6.1 11.3 0.00 0.00 0.00 66 1015.8
20260501174606 62 135 6.1 13.0 0.00 0.00 0.00 64 1015.8
20260501174107 62 132 6.1 13.0 0.00 0.00 0.00 63 1015.9
20260501173607 63 118 7.8 13.0 0.00 0.00 0.00 63 1015.9
20260501173107 63 108 7.0 13.0 0.00 0.00 0.00 62 1015.9
20260501171607 63 139 4.3 12.2 0.00 0.00 0.00 61 1016.0
20260501171108 64 129 6.1 13.0 0.00 0.00 0.00 60 1016.0
20260501170607 64 128 6.1 13.0 0.00 0.00 0.00 59 1016.0
20260501170107 64 124 5.2 12.2 0.00 0.00 0.00 58 1016.0
20260501164607 64 127 7.0 13.0 0.00 0.00 0.00 56 1016.1
20260501164107 64 130 6.1 13.9 0.00 0.00 0.00 55 1016.2
20260501163107 65 117 7.8 13.9 0.00 0.00 0.00 55 1016.2
20260501161607 65 129 7.8 13.0 0.00 0.00 0.00 52 1016.3